ETH605 ZBAA-HAAB

Flight info

Callsign ETH605
Flight time N/A
Altitude 34100
Route K0920S1040 IDKEX5Y IDKEX B339 ASILA A575 UPREK DCT NUKTI B215 IBANO W187 TUSLI W112 PURPA/N0495F341 G325 PG T385 TAPDO G652 GEPOT B400 NODMA L702 ULALI T701 TORBA UB535 LAKBE LAKBE3A
Aircraft A359/H-SDE2E3GHIJ3J4J5LM1ORWXY/LB1D1

Departure

Time 2026-05-05 00:18
Airport Beijing Capital International Airport (ZBAA)

Arrival

Time N/A
Airport Addis Ababa Bole International Airport (HAAB)
Time Latitude Longitude Altitude Speed Heading
2026-05-04 23:42 40.07274 116.60492 130 ft 0 kts 83°
2026-05-05 00:05 40.07273 116.60479 124 ft 4 kts 83°
2026-05-05 00:05 40.07270 116.60444 124 ft 4 kts 83°
2026-05-05 00:05 40.07267 116.60415 124 ft 4 kts 87°
2026-05-05 00:06 40.07269 116.60387 124 ft 4 kts 121°
2026-05-05 00:06 40.07283 116.60366 124 ft 4 kts 155°
2026-05-05 00:06 40.07308 116.60355 126 ft 4 kts 171°
2026-05-05 00:06 40.07318 116.60353 124 ft 0 kts 173°
2026-05-05 00:11 40.07303 116.60354 126 ft 4 kts 178°
2026-05-05 00:12 40.07271 116.60338 127 ft 6 kts 217°
2026-05-05 00:12 40.07251 116.60282 126 ft 8 kts 258°
2026-05-05 00:12 40.07241 116.60194 127 ft 11 kts 262°
2026-05-05 00:12 40.07230 116.60081 128 ft 14 kts 263°
2026-05-05 00:13 40.07176 116.59994 127 ft 13 kts 185°
2026-05-05 00:13 40.07084 116.60010 127 ft 15 kts 173°
2026-05-05 00:13 40.06971 116.60028 124 ft 17 kts 173°
2026-05-05 00:13 40.06843 116.60048 125 ft 20 kts 173°
2026-05-05 00:14 40.06704 116.60070 126 ft 20 kts 173°
2026-05-05 00:14 40.06568 116.60092 126 ft 19 kts 173°
2026-05-05 00:14 40.06438 116.60112 126 ft 19 kts 173°
2026-05-05 00:14 40.06312 116.60132 126 ft 18 kts 173°
2026-05-05 00:15 40.06191 116.60152 127 ft 17 kts 173°
2026-05-05 00:15 40.06074 116.60170 127 ft 17 kts 173°
2026-05-05 00:15 40.05954 116.60189 127 ft 18 kts 173°
2026-05-05 00:15 40.05830 116.60208 125 ft 18 kts 173°
2026-05-05 00:16 40.05749 116.60220 127 ft 17 kts 174°
2026-05-05 00:16 40.05630 116.60236 127 ft 17 kts 174°
2026-05-05 00:16 40.05550 116.60215 127 ft 10 kts 226°
2026-05-05 00:16 40.05538 116.60134 125 ft 9 kts 278°
2026-05-05 00:17 40.05566 116.60047 124 ft 11 kts 299°
2026-05-05 00:17 40.05616 116.60006 127 ft 1 kts 350°
2026-05-05 00:17 40.05617 116.60006 127 ft 0 kts 350°
2026-05-05 00:17 40.05620 116.60005 127 ft 6 kts 350°
2026-05-05 00:18 40.05853 116.59966 124 ft 64 kts 353°
2026-05-05 00:18 40.06502 116.59863 124 ft 123 kts 353°
2026-05-05 00:18 40.07531 116.59707 128 ft 173 kts 353°
2026-05-05 00:18 40.08753 116.59523 736 ft 170 kts 354°
2026-05-05 00:19 40.09909 116.59333 1422 ft 168 kts 354°
2026-05-05 00:19 40.11113 116.59120 1872 ft 178 kts 353°
2026-05-05 00:19 40.12253 116.58896 2069 ft 188 kts 352°
2026-05-05 00:19 40.13594 116.58692 2282 ft 200 kts 355°
2026-05-05 00:20 40.15023 116.58495 2496 ft 212 kts 354°
2026-05-05 00:20 40.16549 116.58278 2678 ft 229 kts 353°
2026-05-05 00:20 40.18185 116.58029 2916 ft 243 kts 353°
2026-05-05 00:20 40.19907 116.57753 3155 ft 256 kts 353°
2026-05-05 00:21 40.21711 116.57468 3537 ft 264 kts 352°
2026-05-05 00:21 40.23552 116.57181 3942 ft 269 kts 352°
2026-05-05 00:21 40.25400 116.56892 4363 ft 273 kts 351°
2026-05-05 00:21 40.27303 116.56587 4804 ft 277 kts 350°
2026-05-05 00:22 40.29235 116.56260 5262 ft 279 kts 349°
2026-05-05 00:22 40.31163 116.55929 5728 ft 281 kts 349°
2026-05-05 00:22 40.33122 116.55591 6237 ft 282 kts 348°
2026-05-05 00:22 40.35070 116.55262 6705 ft 284 kts 348°
2026-05-05 00:23 40.36989 116.54934 7115 ft 287 kts 348°
2026-05-05 00:23 40.38993 116.54592 7568 ft 290 kts 348°
2026-05-05 00:23 40.40972 116.54256 8043 ft 291 kts 349°
2026-05-05 00:23 40.43020 116.54073 8450 ft 298 kts 356°
2026-05-05 00:24 40.45096 116.54199 8946 ft 301 kts
2026-05-05 00:24 40.47201 116.54378 9412 ft 304 kts
2026-05-05 00:24 40.49326 116.54550 9860 ft 307 kts
2026-05-05 00:24 40.51471 116.54717 10259 ft 312 kts
2026-05-05 00:25 40.53672 116.54881 10484 ft 322 kts
2026-05-05 00:25 40.55938 116.55054 10712 ft 332 kts
2026-05-05 00:25 40.58288 116.55226 10925 ft 342 kts
2026-05-05 00:25 40.60699 116.55401 11143 ft 352 kts
2026-05-05 00:26 40.63175 116.55582 11351 ft 362 kts
2026-05-05 00:26 40.65724 116.55771 11558 ft 371 kts
2026-05-05 00:26 40.68331 116.55962 11750 ft 380 kts
2026-05-05 00:26 40.71025 116.56163 11947 ft 388 kts
2026-05-05 00:27 40.73751 116.56364 12169 ft 396 kts